| time (UTC) | temp C | wind direction | speed KPH | gust KPH | rain 1hr cm | rain 24hr cm | rain mn cm | humidity % | barometer mb |
| 20260505080009 | 16 | 62 | 12.9 | 22.5 | 0.00 | 0.00 | 0.00 | 73 | 1004.9 |
| 20260505075504 | 16 | 33 | 12.9 | 22.5 | 0.00 | 0.00 | 0.00 | 73 | 1004.9 |
| 20260505075003 | 16 | 19 | 11.3 | 22.5 | 0.00 | 0.00 | 0.00 | 73 | 1004.9 |
| 20260505074508 | 16 | 57 | 14.5 | 22.5 | 0.00 | 0.00 | 0.00 | 71 | 1004.8 |
| 20260505074004 | 16 | 49 | 12.9 | 24.1 | 0.00 | 0.00 | 0.00 | 71 | 1004.7 |
| 20260505073503 | 16 | 50 | 11.3 | 24.1 | 0.00 | 0.00 | 0.00 | 70 | 1004.7 |
| 20260505073008 | 16 | 42 | 9.7 | 24.1 | 0.00 | 0.00 | 0.00 | 70 | 1004.6 |
| 20260505072506 | 16 | 78 | 12.9 | 24.1 | 0.00 | 0.00 | 0.00 | 70 | 1004.6 |
| 20260505072008 | 16 | 32 | 12.9 | 24.1 | 0.00 | 0.00 | 0.00 | 70 | 1004.6 |
| 20260505071508 | 16 | 82 | 9.7 | 20.9 | 0.00 | 0.00 | 0.00 | 70 | 1004.6 |
| 20260505071004 | 16 | 69 | 12.9 | 20.9 | 0.00 | 0.00 | 0.00 | 70 | 1004.6 |
| 20260505070504 | 17 | 77 | 11.3 | 25.7 | 0.00 | 0.00 | 0.00 | 70 | 1004.6 |
| 20260505070012 | 17 | 37 | 12.9 | 25.7 | 0.00 | 0.00 | 0.00 | 70 | 1004.6 |
| 20260505065506 | 17 | 48 | 14.5 | 22.5 | 0.00 | 0.00 | 0.00 | 70 | 1004.7 |
| 20260505065004 | 17 | 63 | 11.3 | 22.5 | 0.00 | 0.00 | 0.00 | 69 | 1004.7 |
| 20260505064512 | 17 | 53 | 12.9 | 22.5 | 0.00 | 0.00 | 0.00 | 69 | 1004.8 |
| 20260505064009 | 17 | 54 | 11.3 | 24.1 | 0.00 | 0.00 | 0.00 | 70 | 1004.8 |
| 20260505063504 | 17 | 52 | 9.7 | 25.7 | 0.00 | 0.00 | 0.00 | 69 | 1004.9 |
| 20260505063010 | 17 | 76 | 14.5 | 25.7 | 0.00 | 0.00 | 0.00 | 69 | 1004.9 |
| 20260505062505 | 17 | 59 | 12.9 | 25.7 | 0.00 | 0.00 | 0.00 | 69 | 1004.9 |
| 20260505062005 | 17 | 19 | 12.9 | 29.0 | 0.00 | 0.00 | 0.00 | 69 | 1004.9 |
| 20260505061518 | 17 | 71 | 9.7 | 29.0 | 0.00 | 0.00 | 0.00 | 70 | 1005.0 |
| 20260505061004 | 17 | 65 | 14.5 | 24.1 | 0.00 | 0.00 | 0.00 | 69 | 1005.0 |
| 20260505060507 | 17 | 24 | 12.9 | 24.1 | 0.00 | 0.00 | 0.00 | 69 | 1005.1 |
| 20260505060010 | 17 | 36 | 9.7 | 22.5 | 0.00 | 0.00 | 0.00 | 69 | 1005.1 |
| 20260505055503 | 17 | 22 | 8.0 | 22.5 | 0.00 | 0.00 | 0.00 | 69 | 1005.1 |
| 20260505055005 | 17 | 57 | 12.9 | 24.1 | 0.00 | 0.00 | 0.00 | 69 | 1005.2 |
| 20260505054517 | 17 | 15 | 16.1 | 24.1 | 0.00 | 0.00 | 0.00 | 68 | 1005.4 |
| 20260505054010 | 17 | 38 | 11.3 | 24.1 | 0.00 | 0.00 | 0.00 | 68 | 1005.4 |
| 20260505053502 | 17 | 22 | 12.9 | 24.1 | 0.00 | 0.00 | 0.00 | 68 | 1005.5 |
| 20260505053012 | 17 | 40 | 11.3 | 22.5 | 0.00 | 0.00 | 0.00 | 68 | 1005.5 |
| 20260505052503 | 17 | 63 | 9.7 | 24.1 | 0.00 | 0.00 | 0.00 | 68 | 1005.6 |
| 20260505052006 | 17 | 32 | 9.7 | 24.1 | 0.00 | 0.00 | 0.00 | 68 | 1005.5 |
| 20260505051517 | 17 | 51 | 12.9 | 25.7 | 0.00 | 0.00 | 0.00 | 68 | 1005.6 |
| 20260505051003 | 17 | 39 | 11.3 | 25.7 | 0.00 | 0.00 | 0.00 | 68 | 1005.7 |
| 20260505050506 | 17 | 40 | 9.7 | 25.7 | 0.00 | 0.00 | 0.00 | 68 | 1005.7 |
| 20260505041518 | 17 | 13 | 12.9 | 22.5 | 0.00 | 0.00 | 0.00 | 70 | 1005.8 |
| 20260505041006 | 17 | 17 | 9.7 | 22.5 | 0.00 | 0.00 | 0.00 | 69 | 1005.8 |
| 20260505040508 | 17 | 29 | 11.3 | 24.1 | 0.00 | 0.00 | 0.00 | 69 | 1005.9 |
| 20260505040016 | 17 | 23 | 9.7 | 24.1 | 0.00 | 0.00 | 0.00 | 69 | 1005.9 |
| 20260505035507 | 17 | 49 | 9.7 | 19.3 | 0.00 | 0.00 | 0.00 | 69 | 1006.0 |
| 20260505035006 | 17 | 47 | 8.0 | 20.9 | 0.00 | 0.00 | 0.00 | 69 | 1006.1 |
| 20260505034524 | 17 | 78 | 11.3 | 22.5 | 0.00 | 0.00 | 0.00 | 69 | 1006.0 |
| 20260505034008 | 17 | 44 | 9.7 | 27.4 | 0.00 | 0.00 | 0.00 | 69 | 1006.0 |
| 20260505033511 | 16 | 22 | 9.7 | 27.4 | 0.00 | 0.00 | 0.00 | 70 | 1005.9 |
| 20260505033016 | 16 | 67 | 11.3 | 22.5 | 0.00 | 0.00 | 0.00 | 70 | 1005.9 |
| 20260505032507 | 16 | 355 | 6.4 | 14.5 | 0.00 | 0.00 | 0.00 | 70 | 1005.9 |
| 20260505032008 | 16 | 19 | 4.8 | 16.1 | 0.00 | 0.00 | 0.00 | 70 | 1005.8 |
| 20260505031518 | 16 | 41 | 6.4 | 16.1 | 0.00 | 0.00 | 0.00 | 69 | 1005.9 |
| 20260505031007 | 16 | 26 | 4.8 | 17.7 | 0.00 | 0.00 | 0.00 | 69 | 1005.9 |
| 20260505030506 | 16 | 24 | 9.7 | 17.7 | 0.00 | 0.00 | 0.00 | 69 | 1006.0 |
| 20260505030024 | 16 | 32 | 6.4 | 17.7 | 0.00 | 0.00 | 0.00 | 69 | 1006.1 |
| 20260505025507 | 17 | 49 | 8.0 | 17.7 | 0.00 | 0.00 | 0.00 | 68 | 1006.1 |
| 20260505025007 | 17 | 54 | 8.0 | 17.7 | 0.00 | 0.00 | 0.00 | 68 | 1006.1 |
| 20260505024521 | 17 | 53 | 6.4 | 17.7 | 0.00 | 0.00 | 0.00 | 68 | 1006.1 |
| 20260505024002 | 17 | 30 | 6.4 | 17.7 | 0.00 | 0.00 | 0.00 | 68 | 1006.0 |
| 20260505023501 | 17 | 34 | 8.0 | 17.7 | 0.00 | 0.00 | 0.00 | 68 | 1006.1 |
| 20260505023005 | 17 | 49 | 8.0 | 17.7 | 0.00 | 0.00 | 0.00 | 68 | 1006.1 |
| 20260505022502 | 17 | 355 | 6.4 | 19.3 | 0.00 | 0.00 | 0.00 | 68 | 1006.1 |
| 20260505022004 | 17 | 11 | 9.7 | 19.3 | 0.00 | 0.00 | 0.00 | 68 | 1006.3 |
| 20260505021504 | 17 | 28 | 4.8 | 14.5 | 0.00 | 0.00 | 0.00 | 67 | 1006.2 |
| 20260505021003 | 17 | 15 | 4.8 | 14.5 | 0.00 | 0.00 | 0.00 | 67 | 1006.3 |
| 20260505020504 | 17 | 5 | 4.8 | 14.5 | 0.00 | 0.00 | 0.00 | 67 | 1006.3 |
| 20260505020012 | 17 | 17 | 6.4 | 17.7 | 0.00 | 0.00 | 0.00 | 67 | 1006.2 |
| 20260505015504 | 17 | 15 | 8.0 | 17.7 | 0.00 | 0.00 | 0.00 | 66 | 1006.3 |
| 20260505015004 | 17 | 22 | 8.0 | 17.7 | 0.00 | 0.00 | 0.00 | 66 | 1006.2 |
| 20260505014513 | 17 | 42 | 4.8 | 22.5 | 0.00 | 0.00 | 0.00 | 66 | 1006.2 |
| 20260505014002 | 17 | 55 | 9.7 | 22.5 | 0.00 | 0.00 | 0.00 | 65 | 1006.2 |
| 20260505013502 | 17 | 51 | 8.0 | 22.5 | 0.00 | 0.00 | 0.00 | 65 | 1006.2 |
| 20260505013004 | 17 | 28 | 8.0 | 22.5 | 0.00 | 0.00 | 0.00 | 65 | 1006.1 |
| 20260505012502 | 18 | 57 | 12.9 | 22.5 | 0.00 | 0.00 | 0.00 | 64 | 1006.1 |
| 20260505012003 | 18 | 55 | 8.0 | 22.5 | 0.00 | 0.00 | 0.00 | 64 | 1006.1 |
| 20260505011504 | 18 | 66 | 9.7 | 24.1 | 0.00 | 0.00 | 0.00 | 64 | 1006.1 |
| 20260505011004 | 18 | 24 | 14.5 | 24.1 | 0.00 | 0.00 | 0.00 | 63 | 1006.0 |
| 20260505010503 | 18 | 49 | 6.4 | 20.9 | 0.00 | 0.00 | 0.00 | 62 | 1005.8 |
| 20260505010012 | 18 | 75 | 11.3 | 24.1 | 0.00 | 0.00 | 0.00 | 62 | 1005.7 |
| 20260505005504 | 18 | 78 | 9.7 | 29.0 | 0.00 | 0.00 | 0.00 | 62 | 1005.7 |
| 20260505005004 | 18 | 39 | 14.5 | 30.6 | 0.00 | 0.00 | 0.00 | 62 | 1005.7 |
| 20260505004503 | 18 | 58 | 17.7 | 30.6 | 0.00 | 0.00 | 0.00 | 61 | 1005.7 |
| 20260505004003 | 18 | 63 | 12.9 | 32.2 | 0.00 | 0.00 | 0.00 | 61 | 1005.7 |
| 20260505003503 | 19 | 28 | 12.9 | 32.2 | 0.00 | 0.00 | 0.00 | 61 | 1005.6 |
| 20260505003012 | 19 | 38 | 14.5 | 30.6 | 0.00 | 0.00 | 0.00 | 60 | 1005.5 |
| 20260505002503 | 19 | 63 | 12.9 | 25.7 | 0.00 | 0.00 | 0.00 | 60 | 1005.4 |
| 20260505002005 | 19 | 65 | 16.1 | 27.4 | 0.00 | 0.00 | 0.00 | 60 | 1005.4 |
| 20260505001508 | 19 | 13 | 14.5 | 27.4 | 0.00 | 0.00 | 0.00 | 60 | 1005.2 |
| 20260505001005 | 19 | 32 | 11.3 | 25.7 | 0.00 | 0.00 | 0.00 | 60 | 1005.2 |
| 20260505000505 | 19 | 22 | 12.9 | 22.5 | 0.00 | 0.00 | 0.00 | 59 | 1005.2 |
| 20260505000014 | 19 | 22 | 14.5 | 22.5 | 0.00 | 0.00 | 0.00 | 59 | 1005.1 |
| 20260504235503 | 20 | 15 | 11.3 | 25.7 | 0.00 | 0.00 | 0.00 | 58 | 1005.1 |
| 20260504235003 | 20 | 14 | 11.3 | 29.0 | 0.00 | 0.00 | 0.00 | 58 | 1005.0 |
| 20260504234504 | 20 | 70 | 12.9 | 29.0 | 0.00 | 0.00 | 0.00 | 57 | 1005.0 |
| 20260504234003 | 20 | 20 | 12.9 | 30.6 | 0.00 | 0.00 | 0.00 | 57 | 1005.0 |
| 20260504233503 | 20 | 57 | 16.1 | 30.6 | 0.00 | 0.00 | 0.00 | 57 | 1005.0 |
| 20260504233005 | 20 | 72 | 12.9 | 29.0 | 0.00 | 0.00 | 0.00 | 56 | 1005.0 |
| 20260504232503 | 21 | 55 | 12.9 | 27.4 | 0.00 | 0.00 | 0.00 | 56 | 1005.0 |
| 20260504232004 | 21 | 61 | 16.1 | 25.7 | 0.00 | 0.00 | 0.00 | 55 | 1005.1 |
| 20260504231520 | 21 | 71 | 14.5 | 27.4 | 0.00 | 0.00 | 0.00 | 55 | 1005.0 |
| 20260504231003 | 21 | 61 | 16.1 | 35.4 | 0.00 | 0.00 | 0.00 | 56 | 1005.0 |
| 20260504230503 | 21 | 68 | 16.1 | 37.0 | 0.00 | 0.00 | 0.00 | 56 | 1005.1 |
| 20260504230006 | 21 | 25 | 14.5 | 40.2 | 0.00 | 0.00 | 0.00 | 56 | 1005.0 |
| 20260504225502 | 21 | 65 | 22.5 | 40.2 | 0.00 | 0.00 | 0.00 | 56 | 1005.1 |
| 20260504225003 | 21 | 61 | 16.1 | 38.6 | 0.00 | 0.00 | 0.00 | 57 | 1005.1 |
| 20260504224510 | 21 | 5 | 22.5 | 38.6 | 0.00 | 0.00 | 0.00 | 57 | 1005.2 |
| 20260504224004 | 21 | 69 | 16.1 | 35.4 | 0.00 | 0.00 | 0.00 | 57 | 1005.2 |
| 20260504223504 | 21 | 49 | 16.1 | 35.4 | 0.00 | 0.00 | 0.00 | 56 | 1005.3 |
| 20260504223011 | 21 | 26 | 16.1 | 35.4 | 0.00 | 0.00 | 0.00 | 56 | 1005.3 |
| 20260504222504 | 21 | 55 | 20.9 | 37.0 | 0.00 | 0.00 | 0.00 | 56 | 1005.2 |
| 20260504222005 | 21 | 94 | 14.5 | 37.0 | 0.00 | 0.00 | 0.00 | 57 | 1005.3 |
| 20260504221508 | 21 | 53 | 20.9 | 37.0 | 0.00 | 0.00 | 0.00 | 55 | 1005.4 |
| 20260504221006 | 21 | 63 | 19.3 | 38.6 | 0.00 | 0.00 | 0.00 | 55 | 1005.5 |
| 20260504220507 | 22 | 56 | 24.1 | 38.6 | 0.00 | 0.00 | 0.00 | 54 | 1005.5 |
| 20260504220004 | 22 | 76 | 17.7 | 30.6 | 0.00 | 0.00 | 0.00 | 55 | 1005.5 |
| 20260504215505 | 22 | 41 | 19.3 | 38.6 | 0.00 | 0.00 | 0.00 | 56 | 1005.4 |
| 20260504215004 | 22 | 53 | 12.9 | 38.6 | 0.00 | 0.00 | 0.00 | 56 | 1005.4 |
| 20260504214508 | 22 | 79 | 16.1 | 30.6 | 0.00 | 0.00 | 0.00 | 55 | 1005.4 |
| 20260504214005 | 22 | 49 | 12.9 | 30.6 | 0.00 | 0.00 | 0.00 | 55 | 1005.4 |
| 20260504213503 | 22 | 82 | 17.7 | 30.6 | 0.00 | 0.00 | 0.00 | 52 | 1005.4 |
| 20260504213007 | 22 | 67 | 11.3 | 32.2 | 0.00 | 0.00 | 0.00 | 53 | 1005.4 |
| 20260504212506 | 22 | 52 | 16.1 | 35.4 | 0.00 | 0.00 | 0.00 | 54 | 1005.3 |
| 20260504212004 | 22 | 73 | 20.9 | 35.4 | 0.00 | 0.00 | 0.00 | 54 | 1005.5 |
| 20260504211513 | 22 | 56 | 17.7 | 35.4 | 0.00 | 0.00 | 0.00 | 55 | 1005.5 |
| 20260504211003 | 22 | 63 | 14.5 | 35.4 | 0.00 | 0.00 | 0.00 | 56 | 1005.5 |
| 20260504210503 | 22 | 27 | 16.1 | 35.4 | 0.00 | 0.00 | 0.00 | 56 | 1005.6 |
| 20260504210018 | 22 | 59 | 17.7 | 41.8 | 0.00 | 0.00 | 0.00 | 57 | 1005.5 |
| 20260504205507 | 21 | 62 | 20.9 | 41.8 | 0.00 | 0.00 | 0.00 | 55 | 1005.6 |
| 20260504205006 | 22 | 74 | 22.5 | 38.6 | 0.00 | 0.00 | 0.00 | 53 | 1005.7 |
| 20260504204509 | 22 | 37 | 17.7 | 33.8 | 0.00 | 0.00 | 0.00 | 57 | 1005.8 |
| 20260504204007 | 21 | 32 | 16.1 | 30.6 | 0.00 | 0.00 | 0.00 | 55 | 1005.6 |
| 20260504203507 | 21 | 28 | 12.9 | 29.0 | 0.00 | 0.00 | 0.00 | 55 | 1005.6 |
| 20260504203028 | 22 | 5 | 8.0 | 27.4 | 0.00 | 0.00 | 0.00 | 55 | 1005.6 |
| 20260504202502 | 22 | 69 | 16.1 | 32.2 | 0.00 | 0.00 | 0.00 | 54 | 1005.8 |
| 20260504202001 | 22 | 57 | 17.7 | 32.2 | 0.00 | 0.00 | 0.00 | 53 | 1005.9 |
| 20260504201508 | 22 | 31 | 16.1 | 43.5 | 0.00 | 0.00 | 0.00 | 53 | 1005.8 |
| 20260504201003 | 22 | 75 | 19.3 | 43.5 | 0.00 | 0.00 | 0.00 | 53 | 1005.8 |
| 20260504200504 | 22 | 62 | 12.9 | 29.0 | 0.00 | 0.00 | 0.00 | 53 | 1005.9 |
| 20260504200016 | 22 | 55 | 16.1 | 30.6 | 0.00 | 0.00 | 0.00 | 53 | 1006.0 |
| 20260504195504 | 22 | 42 | 14.5 | 30.6 | 0.00 | 0.00 | 0.00 | 55 | 1006.2 |
| 20260504195004 | 22 | 62 | 12.9 | 29.0 | 0.00 | 0.00 | 0.00 | 54 | 1006.1 |
| 20260504194522 | 22 | 57 | 12.9 | 41.8 | 0.00 | 0.00 | 0.00 | 56 | 1006.2 |
| 20260504194005 | 21 | 16 | 17.7 | 41.8 | 0.00 | 0.00 | 0.00 | 54 | 1006.2 |
| 20260504193506 | 21 | 45 | 12.9 | 37.0 | 0.00 | 0.00 | 0.00 | 55 | 1006.3 |
| 20260504193017 | 21 | 53 | 16.1 | 37.0 | 0.00 | 0.00 | 0.00 | 55 | 1006.6 |
| 20260504192506 | 21 | 67 | 14.5 | 35.4 | 0.00 | 0.00 | 0.00 | 57 | 1006.6 |
| 20260504192013 | 21 | 19 | 16.1 | 35.4 | 0.00 | 0.00 | 0.00 | 56 | 1006.7 |
| 20260504191513 | 21 | 41 | 17.7 | 37.0 | 0.00 | 0.00 | 0.00 | 56 | 1006.8 |
| 20260504191002 | 21 | 59 | 17.7 | 38.6 | 0.00 | 0.00 | 0.00 | 55 | 1006.7 |
| 20260504190503 | 21 | 39 | 17.7 | 38.6 | 0.00 | 0.00 | 0.00 | 55 | 1006.8 |
| 20260504190011 | 21 | 51 | 19.3 | 37.0 | 0.00 | 0.00 | 0.00 | 54 | 1006.9 |
| 20260504185504 | 21 | 360 | 14.5 | 37.0 | 0.00 | 0.00 | 0.00 | 55 | 1006.8 |
| 20260504185007 | 21 | 24 | 19.3 | 40.2 | 0.00 | 0.00 | 0.00 | 55 | 1006.9 |
| 20260504184523 | 21 | 46 | 11.3 | 40.2 | 0.00 | 0.00 | 0.00 | 59 | 1007.0 |
| 20260504184011 | 21 | 32 | 20.9 | 35.4 | 0.00 | 0.00 | 0.00 | 55 | 1007.0 |
| 20260504183508 | 21 | 48 | 17.7 | 32.2 | 0.00 | 0.00 | 0.00 | 54 | 1007.0 |
| 20260504183020 | 21 | 53 | 16.1 | 32.2 | 0.00 | 0.00 | 0.00 | 56 | 1007.1 |
| 20260504182512 | 21 | 103 | 17.7 | 30.6 | 0.00 | 0.00 | 0.00 | 56 | 1007.0 |
| 20260504182003 | 20 | 38 | 16.1 | 30.6 | 0.00 | 0.00 | 0.00 | 58 | 1007.0 |
| 20260504181517 | 21 | 51 | 16.1 | 29.0 | 0.00 | 0.00 | 0.00 | 56 | 1007.2 |
| 20260504181012 | 20 | 85 | 14.5 | 29.0 | 0.00 | 0.00 | 0.00 | 57 | 1007.1 |
| 20260504180513 | 20 | 67 | 16.1 | 29.0 | 0.00 | 0.00 | 0.00 | 56 | 1007.2 |
| 20260504180014 | 20 | 5 | 12.9 | 27.4 | 0.00 | 0.00 | 0.00 | 56 | 1007.2 |
| 20260504175509 | 20 | 71 | 16.1 | 27.4 | 0.00 | 0.00 | 0.00 | 56 | 1007.5 |
| 20260504175005 | 20 | 69 | 17.7 | 29.0 | 0.00 | 0.00 | 0.00 | 56 | 1007.4 |
| 20260504174513 | 20 | 339 | 19.3 | 29.0 | 0.00 | 0.00 | 0.00 | 57 | 1007.6 |
| 20260504174003 | 20 | 59 | 12.9 | 33.8 | 0.00 | 0.00 | 0.00 | 54 | 1007.6 |
| 20260504173502 | 20 | 92 | 19.3 | 33.8 | 0.00 | 0.00 | 0.00 | 57 | 1007.7 |
| 20260504173005 | 20 | 15 | 11.3 | 29.0 | 0.00 | 0.00 | 0.00 | 54 | 1007.7 |
| 20260504172502 | 20 | 24 | 11.3 | 27.4 | 0.00 | 0.00 | 0.00 | 58 | 1007.7 |
| 20260504172003 | 20 | 28 | 12.9 | 25.7 | 0.00 | 0.00 | 0.00 | 54 | 1007.8 |
| 20260504171505 | 20 | 355 | 12.9 | 29.0 | 0.00 | 0.00 | 0.00 | 55 | 1007.8 |
| 20260504171003 | 20 | 44 | 14.5 | 29.0 | 0.00 | 0.00 | 0.00 | 55 | 1007.8 |
| 20260504170503 | 19 | 65 | 14.5 | 30.6 | 0.00 | 0.00 | 0.00 | 59 | 1007.9 |
| 20260504151005 | 16 | 360 | 9.7 | 22.5 | 0.00 | 0.00 | 0.00 | 61 | 1008.9 |
| 20260504150503 | 16 | 26 | 12.9 | 22.5 | 0.00 | 0.00 | 0.00 | 60 | 1008.9 |
| 20260504141006 | 15 | 29 | 8.0 | 20.9 | 0.00 | 0.00 | 0.00 | 62 | 1009.3 |
| 20260504140504 | 15 | 27 | 11.3 | 22.5 | 0.00 | 0.00 | 0.00 | 61 | 1009.3 |
| 20260504130504 | 13 | 63 | 11.3 | 20.9 | 0.00 | 0.00 | 0.00 | 62 | 1009.7 |
| 20260504110508 | 8 | 51 | 6.4 | 16.1 | 0.00 | 0.00 | 0.00 | 70 | 1009.5 |
| 20260504100514 | 8 | 347 | 4.8 | 12.9 | 0.00 | 0.00 | 0.00 | 69 | 1009.2 |
| 20260504082005 | 10 | 23 | 8.0 | 17.7 | 0.00 | 0.00 | 0.00 | 63 | 1009.9 |
| 20260504081518 | 10 | 38 | 6.4 | 17.7 | 0.00 | 0.00 | 0.00 | 63 | 1010.0 |
| 20260504081005 | 10 | 45 | 9.7 | 17.7 | 0.00 | 0.00 | 0.00 | 63 | 1010.1 |
| 20260504080502 | 10 | 24 | 9.7 | 17.7 | 0.00 | 0.00 | 0.00 | 62 | 1010.1 |